Powrót do katalogu

STARLINK-35820

AktywnyŁącznośćVLEO
NORAD 66597·PAYLOAD·🇺🇸 United States

Wystrzelony Nov 22, 2025 z Cape Canaveral Space Force Station

Loading…

Następne Przeloty (najbliższe 24 godziny)

TLE

ŚwieżeSource: CelesTrak SupGP

Epoka: Sep 15, 2026, 04:10 UTC

1 66597C 25270K   26258.17409722 -.00060827  00000+0 -22047-2 0  2583
2 66597  43.0014  66.1690 0001481 271.3058 100.2909 15.27584911    10

Śledź STARLINK-35820 w czasie rzeczywistym z AllMySat

Download on the App Store